{"data":{"norad_id":58048,"epoch":"2026-09-20T22:29:38.020704Z","epoch_age_seconds":99872,"freshness":"FRESH","line1":"1 58048U 23156W   26263.93724561  .00001503  00000+0  55639-4 0  9998","line2":"2 58048  53.1585 339.3316 0001550 100.0964 260.0214 15.34389204164907","mean_motion":15.34389204,"eccentricity":0.000155,"inclination_deg":53.1585,"raan_deg":339.3316,"arg_perigee_deg":100.0964,"mean_anomaly_deg":260.0214,"bstar":5.5639e-5,"rev_number":16490,"period_min":93.848418396458,"perigee_km":461.6749931715,"apogee_km":463.7956635933,"semimajor_km":6840.8723283824,"source":"CELESTRAK","updated_at":"2026-09-21T09:00:33.776614Z"}}